Flag for Japan Weather past 2 weeks in Fukushima, Japan

Now
71 °F

Light rain. Overcast.


Feels Like: 63 °F
Forecast: 69 / 89 °F
Wind: 1 mph from Northeast

Location: Wakamatsu

Current Time: Sep 2, 2015 at 1:28:55 AM

Latest Report: Sep 2, 2015 at 12:00 AM


Visibility: 7 mi

Pressure: 29.84 "Hg

Humidity: 99%

Dew point: 70 °F

Location of FukushimaLocation

Historic Weather in Fukushima — Graph

°F

Fukushima temperature yesterday

Maximum temperature yesterday: 77 °F (at 3:00 PM)
Minimum temperature yesterday: 69 °F (at 4:00 AM)
Average temperature yesterday: 72 °F

Past Weeks' High & Low Weather Summary

 TemperatureHumidityPressure
High85 °F (Aug 18, 12:00 PM)100% (Aug 21, 4:00 AM)29.99 "Hg (Aug 21, 4:00 AM)
Low63 °F (Aug 29, 5:00 AM)46% (Aug 19, 3:00 PM)29.57 "Hg (Aug 22, 2:00 PM)
Average72 °F83%29.84 "Hg
* Reported Midnight between Aug 17 and Aug 18 — Midnight between Sep 1 and Sep 2, Fukushima, Weather by CustomWeather, © 2015

Note: Actual official high and low records may vary slightly from our data, if they occured in-between our weather recording intervals... More about our weather records

Advertising

Fukushima weather history for previous 24 hours

 ConditionsComfort  
Time TempWeatherWind HumidityBarometerVisibility
12:00 AM
Wed, Sep 2
71 °FLight rain. Overcast.1 mph99%29.84 "Hg7 mi
11:00 PM
Tue, Sep 1
71 °FMild.3 mph99%29.84 "Hg9 mi
10:00 PM71 °FLight rain. Overcast.1 mph100%29.87 "Hg5 mi
9:00 PM71 °FLight rain. Overcast.5 mph96%29.89 "Hg9 mi
8:00 PM72 °FMild.1 mph90%29.88 "Hg12 mi
7:00 PM74 °FMild.7 mph81%29.88 "Hg12 mi
6:00 PM75 °FMild.3 mph79%29.87 "Hg12 mi
5:00 PM76 °FMild.6 mph79%29.88 "Hg12 mi
4:00 PM77 °FWarm.6 mph80%29.87 "Hg12 mi
3:00 PM77 °FWarm.6 mph79%29.89 "Hg12 mi
2:00 PM76 °FMild.3 mph84%29.91 "Hg12 mi
1:00 PM76 °FLight rain. Cloudy.1 mph84%29.93 "Hg12 mi
11:00 AM73 °FMild.2 mph91%29.97 "Hg12 mi
10:00 AM71 °FLight rain. Cloudy.2 mph96%29.99 "Hg11 mi
9:00 AM71 °FLight rain. Cloudy.3 mph96%29.98 "Hg12 mi
8:00 AM69 °FLight rain. Cloudy.No wind99%29.99 "Hg6 mi
7:00 AM69 °FLight rain. Cloudy.2 mph100%29.99 "Hg6 mi
5:00 AM69 °FMild.2 mph100%29.98 "Hg12 mi
4:00 AM69 °FLight rain. Overcast.1 mph100%29.98 "Hg6 mi
3:00 AM69 °FLight rain. Overcast.No wind100%29.99 "Hg11 mi
2:00 AM69 °FMild.2 mph100%29.99 "Hg10 mi
1:00 AM69 °FLight rain. Overcast.1 mph100%29.98 "Hg11 mi
Weather by CustomWeather, © 2015

See weather overviewHow to use our weather pages